OBJECT H

基本信息
目录编号:
59058
目录名称:
OBJECT H
国际标识:
2024-039H
轨道中心:
EARTH
物体状态:
已陨落(2025-05-13)
发射日期:
2024-02-29 UTC
国别:
(TBD)
轨道信息
数据来源: 国际轨道数据
星历时间: 2025-05-08T07:47:48+0800
半长轴: 6546.051km
偏心率: 0.0009242
轨道倾角: 97.396°
近地点辐角: 210.905°
升交点赤经: 104.690°
平近点角: 149.171°
近地点: 161.866km
远地点: 173.966km
周期: 87.847分钟
每日圈数: 16.392067
详细信息
发射场:
VOSTO
轨道高度:
LEO
数据来源:
AOE Integration Group
参考系:
TEME
时间系统:
UTC
历元类型:
SGP4
2D轨道图
3D轨道图
轨道高度分析图
轨道倾角分析图
轨道综合分析图
查看轨道综合分析图